Retour au catalogue

STARLINK-36595

ActifCommunicationsVLEO
NORAD 67639·PAYLOAD·🇺🇸 United States

Lancé Jan 30, 2026 depuis Cape Canaveral Space Force Station

Loading…

Prochains Passages (prochaines 24 heures)

TLE

FraisSource: CelesTrak SupGP

Époque: Sep 15, 2026, 02:57 UTC

1 67639C 26020Y   26258.12340278 -.00012377  00000+0 -44893-3 0  2581
2 67639  43.0000 149.9790 0001332 281.9871 115.0649 15.27538457    18

Suivez STARLINK-36595 en temps réel avec AllMySat

Download on the App Store